Location: Stara Lesna
(49.1528°N, 20.2911°E)
Time: 03:27:44
(UTC+02:00)

Meteor 1-29 - Pass Details

Date: 13 July 2020
Orbit: 440 x 459 km, 97.7° (Epoch: 11 August)

Event Time Altitude Azimuth Distance (km) Brightness Sun altitude
Rises 01:55:55 0° 9° (N) 2,464 8.3 -17.3°
Reaches altitude 10° 01:57:58 10° 5° (N) 1,590 6.9 -17.2°
Maximum altitude 02:01:18 54° 288° (WNW) 555 3.3 -17.0°
Enters shadow 02:02:15 39° 234° (SW) 696 3.4 -17.0°
